Precipitable_Water
0.67 0.65 0.63 0.58 0.54 0.47 0.40 0.34 0.28 0.29 0.29 0.20 0.21 0.18 0.19 0.20 0.19 0.19 0.17 0.17 0.15 0.13 0.13 0.10 0.08 0.09 0.12 0.16 0.17 0.11 0.11 0.11 0.09 0.09 0.10 0.13 0.16 0.14 0.13 0.09 0.10 0.10 0.11 0.14
0.69 0.65 0.60 0.54 0.51 0.46 0.37 0.30 0.27 0.29 0.26 0.18 0.17 0.19 0.18 0.19 0.17 0.16 0.15 0.13 0.15 0.15 0.11 0.07 0.08 0.10 0.13 0.16 0.14 0.11 0.16 0.12 0.07 0.06 0.08 0.19 0.15 0.16 0.14 0.14 0.13 0.10 0.09 0.13
0.68 0.63 0.56 0.51 0.48 0.44 0.35 0.28 0.23 0.25 0.25 0.22 0.17 0.16 0.16 0.15 0.19 0.17 0.16 0.15 0.16 0.11 0.08 0.10 0.09 0.10 0.13 0.16 0.16 0.18 0.17 0.11 0.10 0.08 0.09 0.10 0.10 0.12 0.14 0.14 0.10 0.11 0.11 0.13
0.66 0.59 0.53 0.48 0.44 0.40 0.34 0.29 0.25 0.26 0.19 0.19 0.19 0.17 0.17 0.14 0.12 0.15 0.16 0.13 0.11 0.10 0.08 0.09 0.09 0.11 0.12 0.15 0.17 0.17 0.14 0.09 0.10 0.11 0.14 0.14 0.13 0.14 0.15 0.13 0.15 0.11 0.13 0.13
0.64 0.58 0.51 0.45 0.42 0.38 0.32 0.26 0.25 0.25 0.22 0.21 0.18 0.17 0.16 0.14 0.13 0.14 0.13 0.11 0.11 0.11 0.10 0.12 0.10 0.12 0.13 0.14 0.15 0.15 0.15 0.09 0.10 0.10 0.13 0.13 0.12 0.12 0.13 0.13 0.13 0.12 0.12 0.13
0.61 0.57 0.53 0.47 0.39 0.37 0.32 0.34 0.31 0.24 0.20 0.19 0.16 0.15 0.15 0.15 0.14 0.16 0.17 0.13 0.11 0.10 0.12 0.15 0.15 0.17 0.17 0.16 0.14 0.12 0.13 0.11 0.09 0.08 0.09 0.12 0.08 0.11 0.12 0.11 0.13 0.11 0.09 0.12
0.59 0.57 0.54 0.49 0.44 0.38 0.34 0.33 0.28 0.20 0.16 0.16 0.15 0.16 0.16 0.13 0.13 0.12 0.14 0.14 0.12 0.14 0.19 0.16 0.14 0.12 0.12 0.14 0.13 0.15 0.12 0.11 0.11 0.08 0.07 0.06 0.11 0.15 0.14 0.11 0.12 0.13 0.13 0.12
0.58 0.58 0.54 0.50 0.46 0.40 0.34 0.34 0.26 0.19 0.15 0.17 0.16 0.15 0.14 0.13 0.13 0.11 0.13 0.14 0.17 0.20 0.15 0.10 0.08 0.07 0.07 0.09 0.10 0.11 0.14 0.12 0.09 0.07 0.07 0.09 0.12 0.12 0.10 0.09 0.09 0.14 0.12 0.12
0.57 0.57 0.55 0.50 0.44 0.40 0.33 0.32 0.30 0.20 0.16 0.13 0.17 0.14 0.14 0.11 0.09 0.10 0.12 0.17 0.21 0.19 0.14 0.11 0.07 0.06 0.07 0.06 0.08 0.11 0.12 0.13 0.10 0.08 0.06 0.06 0.10 0.14 0.13 0.12 0.09 0.15 0.13 0.14
0.57 0.55 0.54 0.49 0.45 0.41 0.34 0.30 0.30 0.20 0.15 0.19 0.17 0.13 0.12 0.16 0.13 0.12 0.13 0.14 0.13 0.17 0.12 0.09 0.07 0.07 0.09 0.07 0.07 0.08 0.09 0.09 0.08 0.08 0.07 0.10 0.14 0.14 0.13 0.08 0.09 0.14 0.16 0.16
0.57 0.54 0.49 0.49 0.48 0.43 0.34 0.30 0.33 0.20 0.15 0.18 0.21 0.20 0.16 0.16 0.15 0.11 0.14 0.13 0.13 0.13 0.10 0.09 0.09 0.09 0.09 0.09 0.10 0.11 0.10 0.09 0.08 0.09 0.07 0.06 0.14 0.13 0.10 0.13 0.15 0.16 0.17 0.17
0.55 0.52 0.49 0.47 0.45 0.42 0.35 0.24 0.31 0.28 0.17 0.18 0.24 0.24 0.25 0.24 0.23 0.17 0.18 0.15 0.15 0.15 0.12 0.11 0.11 0.09 0.10 0.10 0.08 0.14 0.09 0.11 0.10 0.11 0.09 0.13 0.15 0.14 0.16 0.16 0.16 0.16 0.17 0.18
0.52 0.51 0.50 0.45 0.42 0.40 0.32 0.25 0.26 0.22 0.17 0.16 0.16 0.17 0.24 0.27 0.25 0.27 0.16 0.17 0.17 0.17 0.20 0.15 0.13 0.10 0.13 0.09 0.11 0.12 0.12 0.15 0.11 0.10 0.11 0.13 0.14 0.16 0.16 0.17 0.17 0.18 0.18 0.18
0.51 0.50 0.45 0.42 0.40 0.34 0.29 0.23 0.25 0.21 0.15 0.09 0.14 0.24 0.21 0.26 0.26 0.26 0.20 0.18 0.20 0.20 0.20 0.14 0.13 0.11 0.16 0.13 0.13 0.12 0.13 0.13 0.11 0.11 0.12 0.13 0.14 0.15 0.16 0.17 0.18 0.18 0.18 0.18
0.50 0.44 0.39 0.37 0.38 0.31 0.28 0.26 0.26 0.24 0.14 0.08 0.11 0.19 0.22 0.24 0.23 0.18 0.17 0.17 0.17 0.16 0.14 0.13 0.13 0.17 0.17 0.16 0.15 0.12 0.14 0.12 0.10 0.09 0.13 0.14 0.14 0.16 0.17 0.17 0.17 0.18 0.18 0.18
0.44 0.38 0.35 0.36 0.36 0.30 0.22 0.15 0.24 0.26 0.23 0.12 0.09 0.17 0.18 0.20 0.17 0.15 0.18 0.21 0.19 0.17 0.16 0.17 0.19 0.20 0.17 0.13 0.11 0.15 0.16 0.17 0.16 0.14 0.17 0.16 0.16 0.17 0.17 0.17 0.18 0.19 0.19 0.19
0.37 0.38 0.37 0.37 0.32 0.27 0.17 0.17 0.23 0.26 0.24 0.12 0.09 0.11 0.16 0.18 0.15 0.17 0.19 0.21 0.22 0.20 0.18 0.15 0.14 0.14 0.15 0.13 0.10 0.14 0.16 0.17 0.17 0.18 0.17 0.14 0.15 0.15 0.18 0.19 0.19 0.20 0.19 0.19
0.38 0.37 0.33 0.30 0.27 0.24 0.20 0.25 0.24 0.24 0.17 0.14 0.09 0.10 0.13 0.16 0.12 0.14 0.19 0.17 0.20 0.19 0.17 0.16 0.14 0.14 0.14 0.11 0.13 0.15 0.16 0.17 0.16 0.17 0.18 0.17 0.18 0.18 0.18 0.19 0.19 0.18 0.18 0.19
0.39 0.37 0.31 0.24 0.19 0.16 0.20 0.26 0.24 0.20 0.15 0.10 0.11 0.10 0.09 0.16 0.13 0.16 0.17 0.18 0.14 0.19 0.16 0.15 0.15 0.13 0.11 0.13 0.13 0.15 0.16 0.16 0.16 0.17 0.17 0.17 0.17 0.17 0.18 0.18 0.18 0.17 0.18 0.19
0.33 0.27 0.18 0.12 0.18 0.26 0.25 0.15 0.11 0.12 0.13 0.14 0.11 0.15 0.11 0.14 0.13 0.13 0.14 0.16 0.14 0.13 0.15 0.18 0.14 0.13 0.16 0.15 0.16 0.17 0.17 0.18 0.18 0.16 0.15 0.16 0.16 0.17 0.17 0.18 0.19 0.19 0.19 0.19
0.19 0.13 0.12 0.20 0.21 0.16 0.09 0.07 0.07 0.08 0.08 0.11 0.13 0.14 0.12 0.16 0.12 0.12 0.16 0.13 0.15 0.12 0.14 0.14 0.12 0.11 0.14 0.16 0.17 0.18 0.19 0.19 0.19 0.19 0.18 0.19 0.18 0.18 0.18 0.18 0.19 0.19 0.19 0.19
0.17 0.16 0.18 0.14 0.10 0.07 0.05 0.05 0.07 0.07 0.06 0.10 0.11 0.13 0.14 0.14 0.17 0.14 0.15 0.13 0.14 0.11 0.16 0.12 0.10 0.13 0.14 0.15 0.17 0.18 0.19 0.19 0.19 0.19 0.19 0.19 0.19 0.19 0.19 0.19 0.19 0.19 0.20 0.20
0.16 0.11 0.08 0.08 0.07 0.04 0.03 0.03 0.05 0.05 0.09 0.11 0.12 0.11 0.13 0.14 0.16 0.14 0.14 0.12 0.12 0.15 0.12 0.10 0.12 0.14 0.14 0.16 0.17 0.18 0.19 0.19 0.19 0.19 0.19 0.19 0.19 0.19 0.18 0.17 0.18 0.19 0.20 0.21
0.08 0.06 0.05 0.05 0.05 0.06 0.07 0.07 0.08 0.11 0.11 0.11 0.11 0.11 0.11 0.14 0.13 0.13 0.11 0.13 0.13 0.10 0.09 0.10 0.12 0.13 0.14 0.16 0.17 0.18 0.18 0.19 0.19 0.18 0.19 0.18 0.19 0.17 0.17 0.18 0.18 0.18 0.18 0.20
0.07 0.08 0.05 0.07 0.09 0.10 0.11 0.12 0.12 0.13 0.13 0.11 0.11 0.11 0.12 0.12 0.12 0.13 0.12 0.11 0.10 0.10 0.10 0.12 0.14 0.14 0.15 0.15 0.16 0.17 0.18 0.18 0.18 0.18 0.18 0.18 0.18 0.16 0.16 0.17 0.17 0.18 0.18 0.18
0.10 0.09 0.08 0.09 0.09 0.09 0.11 0.12 0.11 0.14 0.12 0.12 0.11 0.10 0.09 0.10 0.11 0.11 0.11 0.10 0.10 0.12 0.14 0.15 0.15 0.14 0.15 0.15 0.16 0.17 0.18 0.18 0.19 0.19 0.18 0.18 0.18 0.15 0.15 0.16 0.17 0.17 0.17 0.17
0.09 0.08 0.11 0.11 0.10 0.10 0.12 0.12 0.13 0.14 0.12 0.09 0.10 0.08 0.08 0.12 0.11 0.11 0.13 0.12 0.14 0.16 0.16 0.16 0.15 0.14 0.14 0.15 0.16 0.17 0.18 0.18 0.18 0.18 0.18 0.17 0.18 0.17 0.15 0.14 0.15 0.16 0.17 0.18
Wind_Speed
26 28 30 31 31 31 26 23 22 29 27 25 26 26 28 29 30 32 31 31 32 35 38 38 38 36 37 41 39 41 34 30 28 29 28 18 8 7 9 10 12 15 15 10
26 29 30 31 30 29 25 22 23 27 27 25 27 27 28 29 31 31 32 32 33 35 38 37 38 37 40 35 41 33 29 22 27 24 15 4 8 10 13 13 13 14 13 10
27 29 30 31 29 28 24 23 24 26 26 27 27 28 29 30 31 31 33 33 33 38 38 35 37 39 36 39 34 28 23 21 20 19 20 19 18 17 15 13 11 11 11 12
27 28 29 29 28 27 24 25 24 27 28 29 28 29 29 30 32 32 33 32 36 37 36 37 35 38 36 29 23 21 19 16 18 18 13 11 11 7 7 5 3 5 8 7
25 26 27 28 28 25 24 24 25 27 27 29 29 30 30 31 33 32 33 36 37 37 34 35 38 35 30 23 21 18 17 16 17 13 6 6 7 10 8 6 5 6 8 8
24 26 27 27 28 25 24 25 26 27 28 28 29 29 30 31 34 32 34 35 37 35 34 35 33 27 22 19 19 18 16 17 13 8 12 2 3 9 9 10 7 10 9 14
23 24 25 26 26 26 25 26 27 28 27 28 28 29 30 32 33 33 35 35 35 33 35 30 21 18 15 14 15 13 15 15 8 8 11 3 1 9 12 16 8 10 13 19
23 24 24 25 25 26 26 28 29 29 27 27 27 30 30 32 33 33 32 34 33 32 28 23 19 16 15 13 14 15 12 10 9 9 9 2 5 12 18 16 13 10 17 22
22 23 23 24 25 26 28 29 30 29 27 28 29 29 30 31 32 32 31 32 30 28 23 19 16 14 14 11 12 13 12 9 10 11 9 5 7 16 21 13 7 14 23 22
21 21 22 23 25 27 28 30 31 29 28 28 29 29 30 30 30 30 30 30 27 25 21 16 14 10 10 9 11 13 11 11 12 12 9 5 12 20 18 10 12 23 22 22
21 21 22 23 25 28 29 30 31 29 28 28 28 29 29 29 29 30 30 25 26 21 17 13 11 8 9 8 10 10 10 12 12 12 10 7 17 17 14 15 21 22 22 24
21 22 23 24 27 28 29 29 30 29 29 27 28 29 29 28 29 28 27 24 22 17 14 10 7 8 6 8 8 11 9 11 12 11 13 19 18 20 16 21 22 22 25 26
21 22 24 25 27 28 29 28 29 29 28 26 28 29 28 28 27 27 25 23 19 14 11 8 6 6 6 8 9 10 12 14 13 19 13 20 23 15 23 23 24 25 26 28
21 22 24 26 26 28 26 27 29 29 27 26 28 28 27 28 28 27 26 22 16 10 6 5 4 5 7 8 10 10 14 17 18 18 17 24 13 23 24 24 24 26 27 28
21 23 25 25 25 25 25 26 28 29 28 27 26 25 27 28 28 27 22 14 9 6 4 3 4 5 8 9 10 12 18 18 16 17 24 20 23 24 23 24 26 26 27 27
22 24 24 24 24 25 27 26 28 30 27 26 25 26 26 28 27 20 14 10 7 4 4 4 5 7 8 9 12 12 21 20 19 19 22 22 22 21 22 24 25 26 25 25
21 22 22 22 24 25 26 26 27 28 27 25 24 25 27 27 20 13 10 7 6 5 4 5 7 9 9 10 14 21 21 21 20 18 21 19 19 22 24 24 24 24 24 24
20 20 21 21 22 24 25 26 26 26 24 24 24 26 23 24 16 11 9 7 5 5 5 6 8 8 10 11 19 21 20 20 18 20 20 20 21 22 22 23 23 24 24 24
19 20 22 23 24 24 24 24 24 25 24 22 25 26 22 22 15 10 8 7 5 6 6 7 8 8 10 16 19 20 19 18 19 21 20 20 21 22 22 23 23 22 23 24
19 21 23 23 24 24 22 23 24 24 24 23 23 24 21 19 14 9 8 6 5 5 6 8 7 8 10 17 18 17 17 18 19 20 20 21 21 21 22 22 22 22 22 23
20 21 22 22 22 22 22 22 23 24 23 24 24 23 22 17 12 9 7 6 6 5 5 7 6 7 14 18 17 16 16 17 18 18 19 19 19 20 21 22 22 22 22 22
19 19 20 21 22 21 20 23 23 22 22 24 23 23 20 15 11 8 6 5 4 4 8 5 6 9 16 17 16 16 16 16 17 18 18 19 19 20 20 20 21 22 22 22
18 20 20 21 21 21 21 23 22 22 23 22 23 21 17 13 10 6 5 4 3 6 4 5 6 12 15 15 15 16 15 16 16 18 18 18 19 19 19 20 21 22 22 22
19 20 20 19 21 21 21 21 21 22 21 22 21 18 15 12 8 6 4 4 4 3 4 5 8 12 14 14 14 14 15 15 16 16 17 18 18 18 18 19 20 21 22 23
18 19 19 20 21 21 21 21 21 21 20 20 18 15 13 10 6 5 4 3 2 3 4 6 9 11 12 13 13 13 14 14 14 15 16 17 17 17 16 18 20 21 22 23
18 19 19 20 20 21 21 21 20 20 19 17 15 13 11 8 7 5 3 3 3 3 5 7 8 9 11 12 12 12 13 13 13 14 14 15 16 16 15 16 19 21 21 22
18 19 20 20 20 21 21 21 20 19 17 15 13 11 9 8 6 4 3 4 4 5 5 6 7 8 10 11 12 12 12 12 13 12 13 14 15 15 15 16 18 19 20 22
Wind_Direction
326 327 327 329 330 330 328 324 323 330 330 330 330 328 327 326 325 325 323 321 321 320 321 318 318 316 316 320 319 319 314 309 307 311 309 295 269 282 309 259 254 249 239 221
325 327 329 331 331 332 328 325 325 330 331 329 330 328 327 327 327 327 326 324 324 324 322 320 319 320 321 318 321 318 318 311 312 312 310 287 288 291 296 275 254 245 240 224
326 328 330 331 330 330 328 325 324 329 333 332 329 328 328 327 328 326 326 324 324 325 323 322 318 321 321 321 322 326 322 315 310 309 304 297 288 298 291 259 250 246 245 242
325 329 330 333 332 331 327 329 326 328 329 332 333 329 328 329 329 327 329 325 327 326 323 324 324 324 326 330 334 337 339 326 330 318 316 309 293 313 11 29 285 257 264 241
324 329 332 334 334 330 332 328 327 329 329 329 329 330 329 329 328 326 328 328 326 325 323 325 323 325 330 333 332 332 338 333 332 326 332 357 46 33 17 355 324 304 277 255
322 327 330 334 336 332 330 331 329 328 328 328 328 329 329 329 329 327 328 328 327 327 328 325 321 325 324 323 331 336 337 341 339 344 339 283 13 358 1 338 318 303 286 281
321 325 329 332 335 337 333 331 330 329 329 329 330 330 329 330 330 327 328 330 330 329 328 327 329 337 337 340 345 340 345 354 358 349 346 2 179 359 337 329 308 309 302 300
318 323 326 329 332 335 335 333 332 331 330 330 329 331 331 331 332 332 330 332 331 330 331 336 336 343 346 349 358 1 2 2 2 3 359 32 17 350 340 330 316 322 320 312
316 320 323 327 331 332 333 335 334 332 331 330 330 332 333 333 334 334 333 334 334 336 335 337 342 347 347 352 355 6 10 13 10 0 357 352 355 340 335 328 305 334 329 322
315 319 322 326 329 332 333 334 335 333 332 330 331 332 333 333 334 332 333 334 337 338 339 342 345 350 355 358 357 359 9 6 5 355 347 350 343 338 335 337 328 328 326 323
315 317 321 325 327 329 331 332 334 333 332 332 332 333 332 334 335 335 335 332 339 337 343 343 348 349 2 353 1 360 0 350 352 344 338 335 342 338 340 329 322 323 324 322
312 316 319 323 326 328 330 330 333 334 333 333 333 334 334 333 334 335 336 336 334 334 338 340 341 339 349 351 357 359 351 355 338 335 325 324 327 327 324 327 323 324 323 323
310 314 319 322 325 328 330 332 333 333 333 333 334 334 335 335 335 336 335 333 332 330 331 337 341 338 350 348 352 346 347 344 330 331 330 327 322 322 324 324 322 322 322 322
310 315 319 322 325 329 330 333 335 335 332 331 332 333 334 334 334 332 331 327 328 333 335 342 343 343 351 347 347 346 343 331 330 318 321 327 321 325 324 322 322 323 323 323
311 316 318 321 325 329 332 334 337 337 333 332 333 333 334 334 334 333 336 341 343 353 4 11 359 352 344 349 346 345 343 336 333 327 326 324 319 323 325 325 325 325 325 326
312 316 319 321 323 326 328 329 333 336 335 334 334 334 336 336 337 339 347 355 5 18 20 10 2 354 346 346 347 340 342 338 334 329 328 328 325 328 330 329 329 329 329 329
314 317 322 322 323 327 330 331 332 335 336 336 335 336 336 338 339 342 346 357 4 5 7 357 353 351 349 348 347 339 340 339 339 340 339 338 339 335 334 333 333 333 333 334
314 319 322 325 328 330 332 335 337 336 338 339 337 337 337 343 339 336 341 340 342 354 347 343 343 344 349 347 342 341 342 343 344 344 343 338 337 338 340 341 341 342 343 343
313 316 320 322 325 327 330 332 336 342 340 338 340 341 338 339 336 326 322 325 323 327 336 340 336 343 351 343 341 343 346 348 344 345 346 347 347 347 348 348 349 349 349 350
313 317 320 322 326 327 329 331 334 336 338 341 341 341 339 336 330 322 320 312 315 314 331 334 341 345 349 347 345 345 347 348 349 350 351 351 351 353 353 355 356 356 356 357
315 318 321 323 326 328 330 332 335 334 337 338 339 339 338 337 328 314 314 305 307 306 326 330 338 344 345 346 348 349 350 351 353 353 353 355 356 357 358 360 2 3 3 5
317 321 325 326 329 329 332 332 332 335 336 336 337 337 335 334 329 312 310 299 299 305 326 332 341 344 345 347 349 350 352 353 355 357 358 360 2 3 5 7 8 10 11 14
321 324 326 327 327 333 332 331 331 332 333 335 335 335 335 333 331 314 303 294 294 309 329 339 343 343 346 348 350 352 355 357 359 1 4 5 7 9 12 14 16 17 19 20
324 326 328 328 328 328 328 329 329 330 329 332 334 335 336 333 328 313 297 293 293 312 331 339 340 343 347 349 351 354 356 359 2 4 6 9 11 13 17 21 22 22 23 23
327 327 327 328 327 328 328 329 328 329 329 330 332 334 335 335 329 322 290 291 292 304 325 334 339 344 349 351 354 356 358 1 4 6 9 12 14 17 21 23 22 23 24 24
328 331 329 329 328 330 330 330 329 329 329 329 331 331 334 335 325 307 287 268 270 303 315 330 338 346 352 354 355 357 360 2 5 7 10 14 17 19 21 22 25 25 25 25
331 332 332 332 332 330 330 329 329 328 327 327 325 327 326 327 318 306 274 261 277 297 315 328 338 346 353 355 357 359 2 4 5 8 11 15 16 19 22 24 22 23 25 26